This demonstration page uses our WeatherBlox Daily Observations layout. Learn more.

Left ArrowRight Arrow

Hourly Observations for July 24, 2018

Temp ( °F °C ) Dew Point ( °F °C ) Humidity (%) Winds ( mph kmh ) Pressure ( in mb ) Visibility ( mi km ) Precip ( " mm )
12:15 am 00:15 Clear 65 18.5 61 16 85 85 N N/A 30.18 1022 10 16 N/A
12:35 am 00:35 Clear 65 18.3 61 16.2 88 88 N N/A 30.18 1022 10 16 N/A
12:55 am 00:55 Clear 65 18.3 62 16.5 89 89 N N/A 30.18 1022 10 16 N/A
1:15 am 01:15 Clear 65 18.5 62 16.7 89 89 N N/A 30.18 1022 7 11 N/A
1:35 am 01:35 Clear 65 18.1 61 16.1 88 88 N N/A 30.18 1022 10 16 N/A
1:55 am 01:55 Clear 63 17.3 60 15.7 90 90 N N/A 30.18 1022 10 16 N/A
2:15 am 02:15 Clear 63 17 60 15.7 92 92 N N/A 30.18 1022 10 16 N/A
2:35 am 02:35 Clear 63 17 60 15.7 92 92 NW 3 6 30.18 1022 10 16 N/A
2:55 am 02:55 Clear 62 16.7 60 15.5 93 93 NW 3 6 30.18 1022 10 16 N/A
3:15 am 03:15 Clear 61 16 59 14.9 93 93 WNW 3 6 30.18 1022 10 16 N/A
3:35 am 03:35 Clear 60 15.6 58 14.7 94 94 N N/A 30.18 1022 7 11 N/A
3:55 am 03:55 Clear 60 15.7 59 14.9 95 95 N N/A 30.18 1022 10 16 N/A
4:15 am 04:15 Clear 61 16 59 15.1 94 94 N N/A 30.18 1022 10 16 N/A
4:35 am 04:35 Clear 61 16.1 59 15.2 94 94 N N/A 30.18 1022 10 16 N/A
4:55 am 04:55 Clear 61 16 59 15 94 94 W 3 6 30.18 1022 10 16 N/A
5:15 am 05:15 Clear 61 16.1 59 15 93 93 WNW 3 6 30.18 1022 10 16 N/A
5:35 am 05:35 Clear 60 15.7 58 14.6 93 93 N N/A 30.18 1022 10 16 N/A
5:55 am 05:55 Clear 59 15.2 57 14.1 93 93 NW 3 6 30.21 1023 10 16 N/A
6:15 am 06:15 Clear 58 14.5 56 13.6 94 94 N N/A 30.21 1023 7 11 N/A
6:35 am 06:35 Sunny with Mist and Fog 59 14.8 57 13.9 94 94 N N/A 30.21 1023 3 5 N/A
6:55 am 06:55 Sunny 58 14.5 56 13.6 94 94 N N/A 30.24 1024 10 16 N/A
7:15 am 07:15 Sunny 58 14.7 57 14 96 96 N N/A 30.24 1024 10 16 N/A
7:35 am 07:35 Sunny 60 15.8 59 15.1 96 96 N N/A 30.18 1022 7 11 N/A
7:55 am 07:55 Sunny 62 16.7 61 15.9 95 95 N N/A 30.21 1023 10 16 N/A
8:15 am 08:15 Sunny 65 18.2 61 16.3 89 89 SW 3 6 30.21 1023 10 16 N/A
8:35 am 08:35 Sunny 66 18.9 62 16.8 88 88 N N/A 30.18 1022 10 16 N/A
8:55 am 08:55 Sunny 70 20.9 63 17.2 79 79 N N/A 30.18 1022 10 16 N/A
9:15 am 09:15 Sunny 71 21.7 63 17.4 77 77 W 5 7 30.18 1022 10 16 N/A
9:35 am 09:35 Sunny 72 22 62 16.9 73 73 SW 3 6 30.18 1022 10 16 N/A
9:55 am 09:55 Sunny 73 22.7 62 16.6 69 69 SW 3 6 30.15 1021 10 16 N/A
10:15 am 10:15 Partly Cloudy 74 23.3 61 16.1 64 64 S 3 6 30.15 1021 10 16 N/A
10:35 am 10:35 Sunny 75 24.1 60 15.4 58 58 S 5 7 30.15 1021 10 16 N/A
10:55 am 10:55 Partly Cloudy 76 24.6 58 14.4 53 53 SE 8 13 30.12 1020 10 16 N/A
11:15 am 11:15 Partly Cloudy 76 24.5 58 14.7 54 54 SSW 7 11 30.15 1021 10 16 N/A
11:35 am 11:35 Sunny 78 25.5 58 14.5 51 51 SSE 8 13 30.12 1020 10 16 N/A
11:55 am 11:55 Sunny 78 25.5 57 13.9 49 49 S 3 6 30.12 1020 10 16 N/A
12:15 pm 12:15 Sunny 79 26.3 58 14.7 49 49 S 5 7 30.09 1019 10 16 N/A
12:35 pm 12:35 Partly Cloudy 80 26.7 59 15.1 49 49 SSE 6 9 30.09 1019 10 16 N/A
12:55 pm 12:55 Partly Cloudy 80 26.6 59 15.1 49 49 SSE 7 11 30.09 1019 10 16 N/A
1:15 pm 13:15 Mostly Cloudy 82 27.9 58 14.6 44 44 SSE 6 9 30.09 1019 10 16 N/A
1:35 pm 13:35 Cloudy 82 28 57 14.1 43 43 SSE 10 17 30.09 1019 10 16 N/A
1:55 pm 13:55 Mostly Cloudy 84 28.7 56 13.5 39 39 SSE 9 15 30.09 1019 10 16 N/A
2:15 pm 14:15 Mostly Cloudy 83 28.6 57 14 41 41 S 8 13 30.06 1018 10 16 N/A
2:35 pm 14:35 Mostly Cloudy 82 27.9 59 14.8 45 45 S 9 15 30.06 1018 10 16 N/A
2:55 pm 14:55 Mostly Cloudy 84 28.9 59 14.9 42 42 S 8 13 30.03 1017 10 16 N/A
3:15 pm 15:15 Cloudy 84 28.8 58 14.6 42 42 S 6 9 30.03 1017 10 16 N/A
3:35 pm 15:35 Cloudy 83 28.3 59 15.1 45 45 SE 8 13 30.06 1018 10 16 N/A
3:55 pm 15:55 Mostly Cloudy 83 28.6 58 14.3 42 42 SSE 8 13 30.06 1018 10 16 N/A
4:15 pm 16:15 Partly Cloudy 84 29.1 57 14 40 40 SSE 10 17 30.03 1017 10 16 N/A
4:35 pm 16:35 Mostly Cloudy 84 28.7 58 14.4 42 42 SSE 10 17 30.06 1018 10 16 N/A
4:55 pm 16:55 Partly Cloudy 85 29.2 59 15 42 42 S 8 13 30.03 1017 10 16 N/A
5:15 pm 17:15 Sunny 84 29.1 58 14.7 41 41 SSE 7 11 30.00 1016 10 16 N/A
5:35 pm 17:35 Mostly Cloudy 86 29.8 59 15.1 41 41 SSE 10 17 30.00 1016 10 16 N/A
5:55 pm 17:55 Partly Cloudy 84 29.1 59 14.9 42 42 SSE 9 15 30.00 1016 10 16 N/A
6:15 pm 18:15 Sunny 83 28.4 59 15.1 44 44 SSE 9 15 30.03 1017 10 16 N/A
6:35 pm 18:35 Sunny 84 28.8 59 14.8 42 42 SE 10 17 30.00 1016 10 16 N/A
6:55 pm 18:55 Sunny 83 28.2 60 15.5 46 46 SSE 9 15 30.03 1017 10 16 N/A
7:15 pm 19:15 Sunny 83 28.3 59 15.2 45 45 SSE 8 13 29.97 1015 10 16 N/A
7:35 pm 19:35 Sunny 82 27.6 60 15.6 48 48 SSE 8 13 30.00 1016 10 16 N/A
7:55 pm 19:55 Sunny 81 27.3 60 15.7 49 49 SE 9 15 30.00 1016 10 16 N/A
8:15 pm 20:15 Sunny 81 27 60 15.8 50 50 SE 8 13 30.00 1016 10 16 N/A
8:35 pm 20:35 Sunny 79 26 61 16 54 54 SE 6 9 30.03 1017 10 16 N/A
8:55 pm 20:55 Sunny 76 24.5 62 16.6 62 62 SE 6 9 30.06 1018 10 16 N/A
9:15 pm 21:15 Clear 76 24.4 62 16.5 61 61 SE 7 11 30.06 1018 10 16 N/A
9:35 pm 21:35 Clear 75 24 63 17.2 66 66 SE 9 15 30.06 1018 10 16 N/A
9:55 pm 21:55 Clear 74 23.3 64 18 72 72 SE 8 13 30.03 1017 10 16 N/A
10:15 pm 22:15 Clear 73 22.7 64 18 75 75 ESE 7 11 30.06 1018 10 16 N/A
10:35 pm 22:35 Clear 72 22.2 64 18 77 77 SE 7 11 30.06 1018 10 16 N/A
10:55 pm 22:55 Clear 72 22 64 18 78 78 SE 8 13 30.06 1018 10 16 N/A
11:15 pm 23:15 Clear 72 22 64 18 78 78 SE 9 15 30.06 1018 10 16 N/A
11:35 pm 23:35 Clear 71 21.5 64 18 81 81 SE 8 13 30.06 1018 10 16 N/A
11:55 pm 23:55 Clear 69 20.5 64 17.8 85 85 SSE 5 7 30.09 1019 10 16 N/A

Powered by AerisWeather